Buffalo, MN

7:22 AM CDT on May 26, 2017 (GMT -0500)
Buffalo

Weather History for KCFE - March, 2014

Change the Weather History Date:

Saturday, March 1, 2014

  Actual Average (KMIC) Record (KMIC)
Temperature  
Mean Temperature -4 °F -  
Max Temperature 2 °F 28 °F 60 °F (1992)
Min Temperature -9 °F 14 °F -7 °F (2014)
Degree Days  
Heating Degree Days 68    
Moisture  
Dew Point -16 °F    
Average Humidity 56    
Maximum Humidity 70    
Minimum Humidity 46    
Precipitation  
Precipitation 0.00 in - - ()
Sea Level Pressure  
Sea Level Pressure 30.41 in    
Wind  
Wind Speed 10 mph (NW)    
Max Wind Speed 13 mph    
Max Gust Speed 20 mph    
Visibility 10 miles    
Events      
Averages and records for this station are not official NWS values.
T = Trace of Precipitation, MM = Missing Value Source: NWS Daily Summary

Daily Weather History Graph

Daily Weather History Graph

Search for Another Location

Airport or City:

Trip Planner

Search our weather history database for the weather conditions in past years. The results will help you decide how hot, cold, wet, or windy it might be!

Date:

Astronomy

Mar. 01, 2014 Rise Set
Actual Time 6:53 AM CST 6:02 PM CST
Civil Twilight 6:23 AM CST 6:32 PM CST
Nautical Twilight 5:49 AM CST 7:06 PM CST
Astronomical Twilight 5:15 AM CST 7:40 PM CST
Moon 6:45 AM CST (3/1) 6:54 PM CST (3/1)
Length of Visible Light 12h 08m
Length of Day
11h 09m
New Moon, 0% of the Moon is Illuminated
Mar 1
New Moon
Mar 8
First Quarter
Mar 16
Full
Mar 23
Last Quarter
Mar 30
New

Hourly Weather History & Observations

Time (CST) Temp. Windchill Dew Point Humidity Pressure Visibility Wind Dir Wind Speed Gust Speed Precip Events Conditions
12:15 AM 2.3 °F -15.0 °F -6.0 °F 68% 30.19 in 10.0 mi NW 12.7 mph 18.4 mph N/A   Overcast
12:36 AM 1.8 °F -14.0 °F -6.3 °F 69% 30.20 in 10.0 mi NW 10.4 mph 17.3 mph N/A   Overcast
12:56 AM 0.9 °F -16.8 °F -6.9 °F 70% 30.21 in 10.0 mi NW 12.7 mph 16.1 mph N/A   Overcast
1:15 AM 0.3 °F -15.8 °F -7.6 °F 69% 30.23 in 10.0 mi NW 10.4 mph 17.3 mph N/A   Mostly Cloudy
1:36 AM -0.0 °F -18.0 °F -8.0 °F 69% 30.24 in 10.0 mi NW 12.7 mph 17.3 mph N/A   Scattered Clouds
1:55 AM -0.6 °F -16.0 °F -8.3 °F 70% 30.26 in 10.0 mi NW 9.2 mph - N/A   Scattered Clouds
2:15 AM -1.3 °F -16.8 °F -9.2 °F 69% 30.26 in 10.0 mi NW 9.2 mph - N/A   Overcast
2:36 AM -1.5 °F -17.1 °F -9.4 °F 69% 30.27 in 10.0 mi NW 9.2 mph - N/A   Overcast
2:56 AM -1.8 °F -18.5 °F -9.8 °F 69% 30.27 in 10.0 mi NW 10.4 mph 18.4 mph N/A   Overcast
3:15 AM -2.2 °F -18.0 °F -10.3 °F 68% 30.29 in 10.0 mi NW 9.2 mph - N/A   Overcast
3:36 AM -3.1 °F -17.9 °F -11.0 °F 69% 30.28 in 10.0 mi NW 8.1 mph - N/A   Mostly Cloudy
3:56 AM -3.3 °F -16.9 °F -11.2 °F 69% 30.28 in 10.0 mi NNW 6.9 mph - N/A   Mostly Cloudy
4:15 AM -3.3 °F -18.2 °F -11.0 °F 69% 30.29 in 10.0 mi NW 8.1 mph - N/A   Overcast
4:36 AM -3.5 °F -20.5 °F -11.4 °F 69% 30.31 in 10.0 mi NW 10.4 mph - N/A   Overcast
4:56 AM -3.6 °F -19.7 °F -12.3 °F 67% 30.32 in 10.0 mi NW 9.2 mph - N/A   Overcast
5:15 AM -3.8 °F -22.7 °F -12.3 °F 67% 30.33 in 10.0 mi NW 12.7 mph - N/A   Overcast
5:36 AM -4.0 °F -19.0 °F -13.2 °F 65% 30.34 in 10.0 mi NW 8.1 mph - N/A   Scattered Clouds
5:56 AM -4.2 °F -21.4 °F -13.4 °F 65% 30.34 in 10.0 mi NNW 10.4 mph 16.1 mph N/A   Scattered Clouds
6:15 AM -4.5 °F -19.7 °F -14.1 °F 64% 30.36 in 10.0 mi NW 8.1 mph - N/A   Scattered Clouds
6:36 AM -4.9 °F -21.3 °F -15.0 °F 62% 30.37 in 10.0 mi NW 9.2 mph 19.6 mph N/A   Scattered Clouds
6:56 AM -5.4 °F -21.9 °F -16.1 °F 60% 30.37 in 10.0 mi NW 9.2 mph - N/A   Scattered Clouds
7:15 AM -5.4 °F -19.5 °F -16.8 °F 58% 30.37 in 10.0 mi NNW 6.9 mph 10.4 mph N/A   Scattered Clouds
7:36 AM -5.6 °F -22.2 °F -17.1 °F 58% 30.38 in 10.0 mi NNW 9.2 mph - N/A   Mostly Cloudy
7:56 AM -5.6 °F -24.1 °F -17.3 °F 57% 30.39 in 10.0 mi NW 11.5 mph - N/A   Mostly Cloudy
8:15 AM -5.4 °F -23.0 °F -17.9 °F 55% 30.41 in 10.0 mi WNW 10.4 mph - N/A   Overcast
8:36 AM -5.3 °F -22.8 °F -18.4 °F 53% 30.42 in 10.0 mi NNW 10.4 mph - N/A   Overcast
8:56 AM -4.9 °F -21.3 °F -17.7 °F 54% 30.42 in 10.0 mi WNW 9.2 mph - N/A   Overcast
9:15 AM -4.9 °F -21.3 °F -18.8 °F 51% 30.41 in 10.0 mi NW 9.2 mph - N/A   Overcast
9:36 AM -4.4 °F -21.6 °F -18.4 °F 51% 30.42 in 10.0 mi NW 10.4 mph - N/A   Overcast
9:56 AM -4.2 °F -21.4 °F -18.0 °F 52% 30.45 in 10.0 mi NW 10.4 mph - N/A   Mostly Cloudy
10:15 AM -4.0 °F -21.2 °F -18.4 °F 50% 30.46 in 10.0 mi WNW 10.4 mph - N/A   Mostly Cloudy
10:36 AM -3.5 °F -17.1 °F -18.2 °F 49% 30.46 in 10.0 mi NW 6.9 mph - N/A   Overcast
10:56 AM -3.3 °F -20.3 °F -17.5 °F 51% 30.46 in 10.0 mi WNW 10.4 mph - N/A   Mostly Cloudy
11:15 AM -3.1 °F -20.1 °F -17.3 °F 51% 30.46 in 10.0 mi West 10.4 mph - N/A   Scattered Clouds
11:36 AM -2.6 °F -19.4 °F -17.3 °F 50% 30.47 in 10.0 mi WNW 10.4 mph - N/A   Scattered Clouds
11:56 AM -2.2 °F -18.9 °F -17.0 °F 50% 30.48 in 10.0 mi West 10.4 mph - N/A   Clear
12:15 PM -1.5 °F -17.1 °F -17.0 °F 48% 30.47 in 10.0 mi NW 9.2 mph - N/A   Clear
12:36 PM -1.5 °F -17.1 °F -17.0 °F 48% 30.46 in 10.0 mi NW 9.2 mph 17.3 mph N/A   Clear
12:56 PM -1.1 °F -15.5 °F -16.8 °F 48% 30.46 in 10.0 mi NW 8.1 mph - N/A   Clear
1:15 PM -1.3 °F -16.8 °F -17.5 °F 46% 30.46 in 10.0 mi NW 9.2 mph 16.1 mph N/A   Clear
1:36 PM -1.1 °F -14.3 °F -16.2 °F 49% 30.46 in 10.0 mi NW 6.9 mph 10.4 mph N/A   Clear
1:55 PM -1.3 °F -18.7 °F -16.4 °F 49% 30.45 in 10.0 mi NW 11.5 mph 16.1 mph N/A   Clear
2:16 PM -1.1 °F -17.6 °F -16.1 °F 49% 30.43 in 10.0 mi NW 10.4 mph - N/A   Clear
2:36 PM -0.9 °F -16.4 °F -17.0 °F 47% 30.45 in 10.0 mi NNW 9.2 mph - N/A   Scattered Clouds
2:55 PM -0.9 °F -17.4 °F -16.1 °F 49% 30.44 in 10.0 mi NW 10.4 mph - N/A   Scattered Clouds
3:16 PM -1.7 °F -18.3 °F -16.2 °F 50% 30.46 in 10.0 mi WNW 10.4 mph - N/A   Mostly Cloudy
3:36 PM -2.0 °F -18.7 °F -16.2 °F 51% 30.45 in 10.0 mi WNW 10.4 mph - N/A   Scattered Clouds
3:55 PM -2.2 °F -16.8 °F -16.6 °F 50% 30.46 in 10.0 mi WNW 8.1 mph - N/A   Scattered Clouds
4:16 PM -2.4 °F -19.2 °F -17.7 °F 48% 30.47 in 10.0 mi West 10.4 mph - N/A   Scattered Clouds
4:36 PM -2.2 °F -19.9 °F -16.6 °F 50% 30.46 in 10.0 mi WNW 11.5 mph - N/A   Clear
4:55 PM -2.6 °F -17.3 °F -17.5 °F 49% 30.46 in 10.0 mi WNW 8.1 mph - N/A   Clear
5:15 PM -2.7 °F -17.5 °F -17.7 °F 49% 30.47 in 10.0 mi WNW 8.1 mph - N/A   Scattered Clouds
5:36 PM -3.1 °F -20.1 °F -18.2 °F 49% 30.47 in 10.0 mi WNW 10.4 mph - N/A   Overcast
5:55 PM -3.5 °F -15.7 °F -17.9 °F 50% 30.48 in 10.0 mi WNW 5.8 mph - N/A   Mostly Cloudy
6:15 PM -3.5 °F -18.4 °F -18.0 °F 50% 30.48 in 10.0 mi WNW 8.1 mph - N/A   Scattered Clouds
6:36 PM -3.6 °F -20.7 °F -18.2 °F 50% 30.49 in 10.0 mi WNW 10.4 mph - N/A   Scattered Clouds
6:55 PM -4.0 °F -22.1 °F -18.2 °F 51% 30.49 in 10.0 mi WNW 11.5 mph - N/A   Scattered Clouds
7:15 PM -4.2 °F -22.3 °F -17.7 °F 52% 30.51 in 10.0 mi West 11.5 mph - N/A   Mostly Cloudy
7:36 PM -4.5 °F -22.8 °F -18.4 °F 51% 30.51 in 10.0 mi WNW 11.5 mph 16.1 mph N/A   Overcast
7:55 PM -4.9 °F -22.3 °F -18.9 °F 51% 30.49 in 10.0 mi NW 10.4 mph - N/A   Overcast
8:15 PM -5.1 °F -20.4 °F -18.9 °F 51% 30.49 in 10.0 mi NW 8.1 mph - N/A   Scattered Clouds
8:36 PM -5.4 °F -23.0 °F -18.9 °F 52% 30.49 in 10.0 mi NW 10.4 mph 17.3 mph N/A   Mostly Cloudy
8:55 PM -6.0 °F -23.6 °F -19.3 °F 53% 30.50 in 10.0 mi NW 10.4 mph - N/A   Mostly Cloudy
9:15 PM -6.7 °F -24.5 °F -19.7 °F 53% 30.49 in 10.0 mi NW 10.4 mph - N/A   Mostly Cloudy
9:36 PM -7.1 °F -22.8 °F -19.3 °F 55% 30.50 in 10.0 mi NW 8.1 mph - N/A   Scattered Clouds
9:55 PM -7.6 °F -26.6 °F -19.7 °F 56% 30.52 in 10.0 mi NW 11.5 mph 16.1 mph N/A   Clear
10:15 PM -8.0 °F -28.0 °F -19.8 °F 56% 30.52 in 10.0 mi NW 12.7 mph - N/A   Clear
10:36 PM -8.7 °F -23.4 °F -20.4 °F 57% 30.53 in 10.0 mi WNW 6.9 mph - N/A   Clear
10:55 PM -9.0 °F -25.2 °F -20.4 °F 58% 30.52 in 10.0 mi NW 8.1 mph - N/A   Clear
11:16 PM -9.6 °F -29.1 °F -20.6 °F 59% 30.51 in 10.0 mi NW 11.5 mph - N/A   Clear
11:35 PM -9.8 °F -28.3 °F -20.9 °F 58% 30.53 in 10.0 mi NW 10.4 mph - N/A   Clear
11:55 PM -9.8 °F -26.1 °F -21.3 °F 57% 30.53 in 10.0 mi NW 8.1 mph - N/A   Clear